スペースウォッチ彗星

P/2013 YG46 ( Spacewatch )

English version
Home page
Updated on May 29, 2016

---------------------------------------------------------------------

・ プロフィール

発見日 2013年12月27日
発見光度 19.7等
発見者 T. H. Bressi (Spacewatch, Kitt Peak)

・ 軌道要素

Epoch 2013 Nov. 4.0 TT = JDT 2456600.5
T 2011 Jan. 4.87173 TT                                  MPC
q   1.8332992            (2000.0)            P               Q
n   0.16295341     Peri.  231.02218     +0.32740757     +0.93659334
a   3.3196611      Node    58.52327     -0.81531647     +0.34683616
e   0.4477451      Incl.    8.42048     -0.47755977     +0.04997597
P   6.05
From 55 observations 2013 Dec. 26-2014 Feb. 20, mean residual 0".5.

・ 光度変化

        H = 17.0  G = 0.15

---------------------------------------------------------------------

軌道要素はM.P.E.C. 2014-E18に掲載されたものです。
光度グラフはComet for Windowsで作成したものです。

---------------------------------------------------------------------

Copyright(C) Seiichi Yoshida (comet@aerith.net). All rights reserved.